Вернуться в каталог

LEAP-1

АктивенНаукаSSO
NORAD 65321·PAYLOAD·🇮🇳 India

Запущен Aug 26, 2025 с Vandenberg Space Force Base

Loading…

Ближайшие Пролёты (ближайшие 24 часа)

TLE

СвежийSource: Space-Track

Эпоха: Sep 14, 2026, 12:56 UTC

1 65321U 25188G   26257.53945671  .00001686  00000-0  17240-3 0  9991
2 65321  97.7297 330.2388 0001558 272.1662  87.9379 14.91861601 57172

Отслеживайте LEAP-1 в реальном времени с AllMySat

Download on the App Store